Weather History for Bentonville, AR

Change the Weather History Date:

Friday, December 13, 2013

  Actual Average Record
Temperature  
Mean Temperature 32 °F -  
Max Temperature 37 °F 47 °F 70 °F (1948)
Min Temperature 26 °F 26 °F 5 °F (1961)
Degree Days  
Heating Degree Days 34    
Moisture  
Dew Point 27 °F    
Average Humidity 76    
Maximum Humidity 93    
Minimum Humidity 60    
Precipitation  
Precipitation 0.55 in - - ()
Sea Level Pressure  
Sea Level Pressure 29.99 in    
Wind  
Wind Speed 5 mph (SSE)    
Max Wind Speed 13 mph    
Max Gust Speed 22 mph    
Visibility 8 miles    
Events      
Averages and records for this station are not official NWS values.
T = Trace of Precipitation, MM = Missing Value Source: NWS Daily Summary

Daily Weather History Graph

Daily Weather History Graph

Search for Another Location

Airport:

Trip Planner

Search our weather history database for the weather conditions in past years. The results will help you decide how hot, cold, wet, or windy it might be!

Date:

Astronomy

Dec. 13, 2013 Rise Set
Actual Time 7:19 AM CST 5:02 PM CST
Civil Twilight 6:51 AM CST 5:31 PM CST
Nautical Twilight 6:19 AM CST 6:03 PM CST
Astronomical Twilight 5:47 AM CST 6:34 PM CST
Moon 2:42 PM CST (12/13) 3:47 AM CST (12/13)
Length of Visible Light 10h 40m
Length of Day
9h 42m
Waxing Gibbous, 88% of the Moon is Illuminated
Dec 13
Waxing Gibbous
Dec 17
Full
Dec 25
Last Quarter
Jan 1
New
Jan 7
First Quarter

Hourly Weather History & Observations

Time (CST) Temp. Windchill Dew Point Humidity Pressure Visibility Wind Dir Wind Speed Gust Speed Precip Events Conditions
12:15 AM 28.4 °F 21.2 °F 19.4 °F 69% 30.23 in 10.0 mi South 6.9 mph - N/A   Clear
12:35 AM 28.4 °F 21.2 °F 19.4 °F 69% 30.22 in 10.0 mi South 6.9 mph - N/A   Clear
12:55 AM 26.6 °F 20.0 °F 19.4 °F 74% 30.20 in 10.0 mi SSE 5.8 mph - N/A   Clear
1:15 AM 28.4 °F 23.3 °F 19.4 °F 69% 30.19 in 10.0 mi SSE 4.6 mph - N/A   Clear
1:35 AM 30.2 °F 25.4 °F 19.4 °F 64% 30.18 in 10.0 mi South 4.6 mph - N/A   Clear
1:55 AM 30.2 °F - 19.4 °F 64% 30.17 in 10.0 mi Calm Calm - N/A   Clear
2:15 AM 32.0 °F 28.7 °F 19.4 °F 60% 30.17 in 10.0 mi SSW 3.5 mph - N/A   Clear
2:35 AM 32.0 °F 27.5 °F 19.4 °F 60% 30.16 in 10.0 mi South 4.6 mph - N/A   Clear
2:55 AM 32.0 °F - 19.4 °F 60% 30.16 in 10.0 mi Calm Calm - N/A   Clear
3:15 AM 32.0 °F - 19.4 °F 60% 30.15 in 10.0 mi Calm Calm - N/A   Clear
3:35 AM 32.0 °F - 19.4 °F 60% 30.14 in 10.0 mi Calm Calm - N/A   Partly Cloudy
3:55 AM 32.0 °F - 19.4 °F 60% 30.14 in 10.0 mi Calm Calm - N/A   Mostly Cloudy
4:15 AM 32.0 °F - 23.0 °F 69% 30.14 in 10.0 mi Calm Calm - N/A   Overcast
4:35 AM 33.8 °F - 21.2 °F 60% 30.14 in 10.0 mi Calm Calm - N/A   Mostly Cloudy
4:55 AM 33.8 °F 28.6 °F 21.2 °F 60% 30.14 in 10.0 mi South 5.8 mph - N/A   Mostly Cloudy
5:15 AM 35.6 °F 29.9 °F 23.0 °F 60% 30.13 in 10.0 mi SSE 6.9 mph - N/A   Overcast
5:35 AM 35.6 °F 29.9 °F 23.0 °F 60% 30.13 in 10.0 mi South 6.9 mph - N/A   Overcast
5:55 AM 35.6 °F 29.9 °F 23.0 °F 60% 30.13 in 10.0 mi South 6.9 mph - N/A   Mostly Cloudy
6:15 AM 35.6 °F 29.9 °F 23.0 °F 60% 30.12 in 10.0 mi South 6.9 mph - N/A   Mostly Cloudy
6:35 AM 35.6 °F 30.7 °F 23.0 °F 60% 30.12 in 10.0 mi South 5.8 mph - N/A   Overcast
6:55 AM 35.6 °F 31.7 °F 23.0 °F 60% 30.11 in 10.0 mi South 4.6 mph - N/A   Overcast
7:15 AM 35.6 °F 31.7 °F 24.8 °F 65% 30.11 in 10.0 mi South 4.6 mph - 0.01 in   Mostly Cloudy
7:35 AM 35.6 °F 29.9 °F 24.8 °F 65% 30.10 in 10.0 mi SSE 6.9 mph - 0.01 in   Mostly Cloudy
7:55 AM 35.6 °F 30.7 °F 24.8 °F 65% 30.10 in 10.0 mi South 5.8 mph - 0.01 in   Scattered Clouds
8:15 AM 35.6 °F 30.7 °F 26.6 °F 70% 30.09 in 10.0 mi South 5.8 mph - N/A   Mostly Cloudy
8:35 AM 35.6 °F 30.7 °F 26.6 °F 70% 30.08 in 10.0 mi South 5.8 mph - 0.01 in   Overcast
8:55 AM 35.6 °F - 28.4 °F 75% 30.08 in 9.0 mi Calm Calm - 0.02 in   Overcast
9:15 AM 33.8 °F 30.8 °F 28.4 °F 81% 30.09 in 8.0 mi South 3.5 mph - 0.03 in   Overcast
9:35 AM 33.8 °F 27.7 °F 28.4 °F 81% 30.07 in 5.0 mi SSE 6.9 mph - 0.06 in   Overcast
9:55 AM 33.8 °F 27.0 °F 28.4 °F 81% 30.06 in 10.0 mi SSE 8.1 mph - 0.08 in   Mostly Cloudy
10:15 AM 33.8 °F 27.0 °F 28.4 °F 81% 30.04 in 10.0 mi SSE 8.1 mph - 0.01 in   Mostly Cloudy
10:35 AM 35.6 °F 28.6 °F 28.4 °F 75% 30.03 in 10.0 mi South 9.2 mph - 0.03 in   Mostly Cloudy
10:55 AM 35.6 °F 28.6 °F 28.4 °F 75% 30.02 in 10.0 mi SSE 9.2 mph - 0.04 in   Mostly Cloudy
11:15 AM 35.6 °F 28.6 °F 28.4 °F 75% 30.03 in 9.0 mi South 9.2 mph - 0.02 in   Overcast
11:35 AM 35.6 °F 29.2 °F 28.4 °F 75% 30.00 in 10.0 mi South 8.1 mph - 0.02 in   Mostly Cloudy
11:55 AM 35.6 °F 30.7 °F 28.4 °F 75% 30.00 in 10.0 mi South 5.8 mph - 0.04 in   Mostly Cloudy
12:15 PM 35.6 °F 29.2 °F 30.2 °F 81% 29.98 in 10.0 mi South 8.1 mph - N/A   Overcast
12:35 PM 37.4 °F 31.4 °F 28.4 °F 70% 29.98 in 10.0 mi South 8.1 mph - N/A   Overcast
12:55 PM 37.4 °F 30.8 °F 28.4 °F 70% 29.97 in 10.0 mi South 9.2 mph 16.1 mph N/A   Overcast
1:15 PM 35.6 °F 27.1 °F 28.4 °F 75% 29.96 in 9.0 mi SSW 12.7 mph 16.1 mph N/A   Overcast
1:35 PM 35.6 °F 27.1 °F 28.4 °F 75% 29.95 in 8.0 mi South 12.7 mph 21.9 mph N/A   Overcast
1:55 PM 35.6 °F 27.5 °F 28.4 °F 75% 29.93 in 5.0 mi South 11.5 mph - N/A   Overcast
2:15 PM 35.6 °F 29.9 °F 28.4 °F 75% 29.92 in 8.0 mi South 6.9 mph - 0.02 in   Overcast
2:35 PM 33.8 °F 25.8 °F 28.4 °F 81% 29.90 in 8.0 mi South 10.4 mph - 0.02 in   Overcast
2:55 PM 33.8 °F 27.0 °F 30.2 °F 87% 29.89 in 8.0 mi SSE 8.1 mph - 0.02 in   Overcast
3:15 PM 33.8 °F 26.4 °F 30.2 °F 87% 29.88 in 7.0 mi SSE 9.2 mph - N/A   Overcast
3:35 PM 33.8 °F 27.7 °F 30.2 °F 87% 29.87 in 5.0 mi SSE 6.9 mph - N/A   Overcast
3:55 PM 33.8 °F 26.4 °F 30.2 °F 87% 29.86 in 9.0 mi SSE 9.2 mph - N/A   Overcast
4:15 PM 35.6 °F 29.2 °F 30.2 °F 81% 29.86 in 9.0 mi SSE 8.1 mph - N/A   Overcast
4:35 PM 35.6 °F 29.2 °F 30.2 °F 81% 29.85 in 10.0 mi SE 8.1 mph - N/A   Overcast
4:55 PM 35.6 °F 28.6 °F 30.2 °F 81% 29.84 in 10.0 mi SSE 9.2 mph - N/A   Overcast
5:15 PM 35.6 °F 29.2 °F 30.2 °F 81% 29.83 in 10.0 mi SE 8.1 mph - N/A   Overcast
5:35 PM 35.6 °F 29.2 °F 32.0 °F 87% 29.83 in 10.0 mi SSE 8.1 mph - N/A   Overcast
5:55 PM 35.6 °F 28.6 °F 32.0 °F 87% 29.82 in 10.0 mi SSE 9.2 mph - N/A   Overcast
6:15 PM 35.6 °F 29.9 °F 32.0 °F 87% 29.82 in 10.0 mi SSE 6.9 mph - N/A   Overcast
6:35 PM 35.6 °F 30.7 °F 32.0 °F 87% 29.82 in 10.0 mi SSE 5.8 mph - N/A   Overcast
6:55 PM 35.6 °F 31.7 °F 32.0 °F 87% 29.82 in 10.0 mi SSE 4.6 mph - N/A   Overcast
7:15 PM 35.6 °F - 32.0 °F 87% 29.83 in 10.0 mi Calm Calm - N/A   Overcast
7:35 PM 35.6 °F 32.8 °F 32.0 °F 87% 29.83 in 10.0 mi ESE 3.5 mph - N/A   Overcast
7:55 PM 35.6 °F - 32.0 °F 87% 29.85 in 10.0 mi Calm Calm - N/A   Overcast
8:15 PM 35.6 °F - 32.0 °F 87% 29.86 in 9.0 mi Calm Calm - N/A   Overcast
8:35 PM 35.6 °F - 32.0 °F 87% 29.86 in 2.0 mi Calm Calm - N/A   Overcast
8:55 PM 35.6 °F - 33.8 °F 93% 29.85 in 1.2 mi Calm Calm - N/A   Overcast
9:15 PM 35.6 °F 32.8 °F 33.8 °F 93% 29.84 in 1.8 mi East 3.5 mph - N/A   Overcast
9:35 PM 35.6 °F 32.8 °F 33.8 °F 93% 29.83 in 1.8 mi ESE 3.5 mph - 0.01 in   Overcast
9:55 PM 35.6 °F - 33.8 °F 93% 29.83 in 2.0 mi Calm Calm - 0.02 in   Overcast
10:15 PM 35.6 °F - 33.8 °F 93% 29.83 in 1.2 mi Calm Calm - 0.02 in   Overcast
10:35 PM 35.6 °F - 33.8 °F 93% 29.83 in 0.8 mi Calm Calm - 0.07 in   Overcast
10:55 PM 35.6 °F 29.2 °F 33.8 °F 93% 29.83 in 2.0 mi South 8.1 mph - 0.12 in   Overcast
11:15 PM 35.6 °F 32.8 °F 33.8 °F 93% 29.83 in 5.0 mi WSW 3.5 mph - 0.06 in   Overcast
11:35 PM 35.6 °F - 33.8 °F 93% 29.83 in 3.0 mi Calm Calm - 0.13 in   Overcast
11:55 PM 35.6 °F - 33.8 °F 93% 29.83 in 2.0 mi Calm Calm - 0.20 in   Overcast